This demonstration page uses our WeatherBlox Daily Observations layout. Learn more.

Left ArrowRight Arrow

38.88101, -77.10428

Hourly Observations for December 8, 2019

Temp ( °F °C ) Dew Point ( °F °C ) Humidity (%) Winds ( mph kmh ) Pressure ( in mb ) Visibility ( mi km ) Precip ( " mm )
12:52 am 00:52 Mostly Clear 33 0.6 25 -3.9 72 72 N N/A 30.50 1033 10 16 N/A
1:52 am 01:52 Mostly Clear 33 0.6 26 -3.3 75 75 NE 3 6 30.50 1033 10 16 N/A
2:52 am 02:52 Mostly Clear 32 undefined 26 -3.3 79 79 ENE 5 7 30.50 1033 10 16 N/A
3:52 am 03:52 Partly Cloudy 31 -0.6 26 -3.3 82 82 N N/A 30.52 1033 10 16 N/A
4:52 am 04:52 Partly Cloudy 31 -0.6 25 -3.9 79 79 N N/A 30.51 1033 10 16 N/A
5:52 am 05:52 Partly Cloudy 32 undefined 26 -3.3 79 79 N N/A 30.52 1033 10 16 N/A
6:52 am 06:52 Mostly Clear 32 undefined 28 -2.2 85 85 N N/A 30.53 1034 10 16 N/A
7:52 am 07:52 Mostly Sunny 33 0.6 28 -2.2 82 82 N N/A 30.53 1034 10 16 N/A
8:52 am 08:52 Mostly Cloudy 34 1.1 28 -2.2 79 79 N N/A 30.53 1034 10 16 N/A
9:52 am 09:52 Sunny 38 3.3 29 -1.7 70 70 S 3 6 30.53 1034 10 16 N/A
10:52 am 10:52 Mostly Cloudy 40 4.4 28 -2.2 63 63 S 7 11 30.52 1033 10 16 N/A
11:52 am 11:52 Mostly Cloudy 44 6.7 28 -2.2 53 53 S 7 11 30.49 1033 10 16 N/A
12:52 pm 12:52 Mostly Cloudy 45 7.2 30 -1.1 56 56 S 9 15 30.45 1031 10 16 N/A
1:52 pm 13:52 Mostly Cloudy 47 8.3 32 undefined 56 56 S 9 15 30.42 1030 10 16 N/A
2:52 pm 14:52 Mostly Cloudy 47 8.3 32 undefined 56 56 S 12 19 30.40 1029 10 16 N/A
3:52 pm 15:52 Mostly Cloudy 46 7.8 32 undefined 58 58 S 7 11 30.39 1029 10 16 N/A
4:52 pm 16:52 Mostly Cloudy 44 6.7 33 0.6 65 65 SSE 3 6 30.38 1029 10 16 N/A
5:52 pm 17:52 Cloudy 45 7.2 34 1.1 66 66 SSE 5 7 30.39 1029 10 16 N/A
6:52 pm 18:52 Cloudy 45 7.2 35 1.7 68 68 SSE 6 9 30.35 1028 10 16 N/A
7:52 pm 19:52 Cloudy 46 7.8 36 2.2 68 68 SSW 5 7 30.37 1028 10 16 N/A
8:52 pm 20:52 Cloudy 46 7.8 36 2.2 68 68 SSW 5 7 30.36 1028 10 16 N/A
9:52 pm 21:52 Cloudy 45 7.2 38 3.3 77 77 SSE 10 17 30.34 1027 10 16 N/A
10:52 pm 22:52 Cloudy 46 7.8 40 4.4 79 79 S 7 11 30.33 1027 10 16 N/A
11:52 pm 23:52 Cloudy 45 7.2 41 5 86 86 SSW 6 9 30.30 1026 10 16 N/A

Powered by AerisWeather